Wind_Speed
12 12 13 14 13 12 12 12 12 12 13 14 14 14 14 15 14 14 15 15 15 15 14 13 13 13 13 13 12 11 10 10 10 10 11 11 10 9 9 9 9 8 7 7 6 6 7 7 6 4 3 3 3 3 3 3 4 4 3 2 2 2 2
14 14 14 15 15 14 14 14 12 12 14 14 13 14 14 14 13 14 15 15 15 15 14 14 14 14 13 13 12 11 11 11 11 12 12 11 11 11 11 10 9 8 7 6 5 4 5 5 4 3 3 4 4 4 4 4 5 5 4 3 2 2 2
15 15 16 16 16 16 15 15 14 13 15 15 14 13 13 14 13 13 14 15 15 15 14 14 14 14 13 12 11 11 11 12 12 12 12 12 13 12 11 10 9 8 8 8 7 7 7 6 5 4 3 4 5 4 3 4 5 5 4 3 3 3 3
17 16 16 16 17 17 15 14 14 14 15 15 14 13 13 14 14 13 14 15 15 15 15 14 14 14 13 12 12 11 11 12 12 12 13 13 13 12 11 10 9 9 9 10 10 9 8 8 7 5 4 4 5 4 3 3 4 3 3 3 3 4 3
19 18 17 16 18 18 15 14 14 14 14 14 14 13 12 13 14 13 14 15 14 15 15 14 14 14 13 13 13 12 12 12 12 12 13 13 13 12 11 10 10 10 10 12 12 10 8 7 6 5 5 4 5 4 3 4 3 3 4 4 4 3 3
20 18 17 18 19 19 16 15 14 14 14 13 13 12 12 13 13 13 14 14 14 15 15 14 14 14 14 14 13 13 13 13 13 13 13 13 13 12 12 12 11 11 12 12 12 10 9 7 6 6 6 5 5 4 4 4 3 3 5 5 5 4 4
20 19 19 19 20 20 18 16 14 14 14 13 12 12 13 14 14 14 15 15 15 15 15 14 14 14 14 14 14 14 14 14 14 14 14 14 13 13 13 13 12 12 12 13 12 11 10 8 8 7 7 7 6 4 4 4 3 4 5 5 5 5 6
21 21 21 21 21 21 19 17 15 15 14 14 14 14 15 15 15 16 16 16 15 15 14 14 14 13 13 13 13 14 15 15 15 15 15 14 13 13 13 13 12 12 13 13 13 12 11 10 9 8 8 8 7 6 6 5 5 6 5 4 4 5 5
24 24 23 23 23 21 20 19 17 16 16 16 16 16 16 16 17 17 16 15 15 14 14 14 13 13 12 12 12 13 14 14 14 15 14 13 13 13 13 13 12 12 13 14 13 12 11 11 10 9 9 9 8 7 7 7 7 8 7 6 6 6 6
27 26 23 23 24 22 21 20 19 19 19 19 18 16 16 17 17 17 16 15 14 14 15 14 13 13 13 13 13 13 14 14 14 13 12 12 12 12 12 12 12 12 13 13 13 12 12 11 11 10 10 10 9 9 8 7 7 8 8 7 7 7 6
28 26 23 25 26 23 21 22 23 22 21 20 18 17 16 17 17 17 15 14 14 15 15 14 14 14 14 14 14 13 13 13 13 13 12 11 12 12 12 12 12 12 13 13 13 12 12 11 11 11 10 9 9 9 8 8 8 8 8 8 8 7 6
29 27 25 26 27 25 23 24 23 20 18 17 17 16 16 16 17 17 16 15 15 16 17 16 16 15 14 14 13 12 12 12 12 12 11 11 11 11 11 12 12 12 12 13 13 12 12 12 11 11 9 8 8 8 9 9 9 8 7 7 7 7 6
30 29 26 25 27 26 23 20 19 18 17 18 18 16 16 17 18 18 17 17 17 18 18 17 16 15 14 13 12 12 12 11 11 11 11 11 11 11 11 11 12 12 12 12 12 12 12 12 11 10 8 8 7 8 9 10 9 7 7 7 7 6 6
29 26 23 25 26 22 18 17 18 20 20 18 18 17 18 18 19 19 19 18 18 18 18 17 15 14 14 13 13 13 13 12 11 11 12 12 12 12 12 11 11 11 11 12 12 12 11 11 10 9 8 8 7 8 10 10 8 7 7 7 6 6 6
25 23 24 27 23 17 17 19 18 20 20 19 19 19 20 19 19 19 20 19 19 18 17 16 14 14 14 14 14 14 13 12 12 12 12 12 12 13 12 11 10 10 10 11 11 11 10 10 9 8 8 8 8 9 11 10 8 7 7 7 7 7 7
21 23 24 25 20 16 19 20 19 21 21 21 21 22 21 20 19 19 20 20 19 18 16 15 15 14 14 14 15 14 13 12 12 12 12 12 13 12 11 11 10 10 10 11 10 10 9 9 8 7 7 8 8 9 10 10 9 8 8 8 8 8 8
19 21 22 21 18 18 20 19 20 22 23 23 23 23 22 21 19 18 20 20 19 17 16 15 14 14 14 15 15 14 13 12 11 12 12 13 13 12 11 10 10 10 10 10 10 9 9 9 7 6 7 7 7 8 9 9 10 10 10 10 9 9 9
18 19 18 17 18 19 19 20 21 22 23 24 24 23 23 22 20 20 20 20 19 17 15 14 14 14 14 14 14 14 14 13 12 12 12 13 12 11 10 9 9 9 10 9 9 8 8 7 6 5 6 7 7 8 8 9 9 10 10 10 9 8 7
17 16 16 16 17 18 18 20 22 23 24 24 25 25 24 23 22 21 20 20 18 16 15 15 15 15 15 14 13 14 14 13 12 12 13 13 12 12 11 9 9 9 9 9 8 7 6 6 6 5 6 7 7 6 6 6 7 7 8 8 7 6 5
16 16 17 17 17 16 18 21 23 24 25 25 26 26 26 24 23 23 21 20 18 17 17 17 17 17 15 14 13 13 13 12 12 12 13 13 12 12 11 10 9 9 9 8 7 6 6 6 7 6 6 6 6 5 6 6 5 5 5 5 5 5 5
18 18 18 17 17 17 18 21 24 24 24 25 25 26 27 26 26 26 24 20 19 18 18 19 18 17 15 13 13 12 11 10 10 11 12 12 12 11 11 10 9 8 8 8 8 7 7 8 8 7 7 7 6 6 7 7 7 6 5 5 6 7 6
18 19 18 17 17 17 18 21 23 23 23 24 24 25 28 27 27 29 25 21 19 19 19 19 18 16 15 14 13 11 9 8 9 10 10 10 10 11 11 11 10 9 9 9 8 8 8 9 9 9 9 8 8 8 8 8 8 7 7 7 8 9 9
15 17 16 16 18 18 17 20 22 22 23 24 24 25 27 27 28 29 25 21 20 20 21 20 19 17 16 15 12 10 9 9 9 9 9 10 10 11 11 11 10 10 10 9 9 9 9 9 10 10 10 9 9 9 9 9 8 8 8 8 9 10 11
12 13 14 15 17 17 17 18 20 21 23 24 24 26 27 28 30 28 24 22 22 22 22 20 19 18 17 15 12 10 10 9 9 10 11 11 11 11 11 11 11 11 10 10 10 10 10 10 10 10 10 10 10 10 11 10 10 10 10 11 11 12 13
9 10 11 13 15 16 17 18 18 20 23 24 24 26 28 29 29 26 23 23 23 23 23 22 20 19 17 15 13 12 12 11 11 12 12 13 12 12 12 12 11 11 11 11 11 11 11 11 11 11 11 11 11 12 12 12 12 12 13 13 14 14 15
8 7 9 12 14 15 16 17 17 18 21 23 25 27 27 27 26 24 23 24 24 25 24 23 21 20 18 16 15 14 14 14 14 14 14 14 13 13 13 13 12 11 11 11 11 11 11 10 10 11 11 11 12 12 13 13 14 14 15 16 16 16 17
8 8 10 11 11 13 14 16 17 18 21 25 25 25 25 25 24 23 23 24 25 26 25 22 21 20 18 16 16 16 16 16 17 16 16 15 14 14 13 12 11 11 11 11 11 11 10 10 9 9 10 11 12 13 13 14 15 16 17 18 19 19 19
7 7 10 12 12 13 14 15 18 20 23 26 26 24 24 24 23 23 24 24 25 26 24 22 21 20 19 18 18 18 18 18 18 18 17 16 14 13 12 12 11 11 11 12 12 12 11 10 10 9 10 11 12 13 14 14 15 16 18 19 20 21 22
6 6 8 12 13 13 15 17 20 22 25 25 25 24 23 23 22 22 23 23 24 25 24 23 22 21 20 19 18 18 18 19 19 18 17 16 15 14 14 13 12 11 12 12 13 14 14 14 13 13 14 14 15 16 16 16 17 18 19 20 21 22 23
5 7 6 8 10 10 13 17 20 21 22 22 23 23 22 21 22 22 21 21 22 23 23 24 23 22 20 19 18 18 18 19 19 19 18 18 17 17 16 16 15 14 14 14 15 16 16 17 17 18 18 19 20 20 20 20 20 20 21 21 22 23 23
4 8 7 3 9 11 13 14 17 21 21 19 20 21 20 20 21 20 20 21 22 23 24 24 23 22 21 20 18 18 19 19 20 20 19 19 18 18 19 18 16 16 16 16 17 18 19 20 21 21 22 23 24 24 24 23 23 22 22 22 22 22 22
3 6 9 6 5 12 16 17 19 21 22 21 20 20 19 20 21 20 21 21 22 23 23 23 22 21 20 20 18 17 18 19 21 21 21 21 20 20 20 19 17 17 18 18 20 21 22 24 25 25 25 25 26 27 27 26 25 24 22 21 21 21 22
5 4 5 6 5 6 13 17 20 21 21 21 22 20 19 21 22 22 22 22 22 22 21 21 20 20 19 18 17 17 18 20 21 21 20 22 23 22 20 19 19 19 20 21 22 24 25 27 28 28 28 29 30 30 28 25 24 22 21 21 21 22 24
8 6 5 4 6 7 8 10 16 20 20 20 23 23 22 22 22 22 23 23 22 20 20 21 22 22 21 20 18 18 19 21 20 18 17 19 21 20 19 18 18 19 21 22 24 26 27 28 28 29 30 30 28 24 21 20 20 20 20 21 23 24 25
10 9 8 5 4 7 9 8 10 16 18 21 25 26 23 22 23 24 25 24 23 22 21 23 25 26 27 25 23 22 22 21 21 21 20 20 21 20 20 20 20 22 23 24 26 28 30 31 32 31 29 25 19 16 16 17 19 20 22 23 25 26 27
9 7 6 4 4 8 8 7 8 11 15 19 22 23 23 23 24 26 28 28 27 26 25 24 26 27 27 25 23 23 23 23 23 23 22 21 21 22 22 23 23 24 25 26 28 29 29 29 28 25 20 17 16 17 18 19 21 23 25 26 27 28 28
7 6 5 4 5 8 10 10 9 10 11 13 18 21 23 25 25 27 29 29 26 25 25 25 26 28 27 25 23 23 23 23 23 23 22 22 23 23 23 24 25 26 26 25 23 21 18 16 15 14 15 16 18 20 21 22 24 25 26 26 26 26 25
Wind_Direction
252 260 266 272 274 273 270 265 260 257 252 243 235 234 236 234 229 220 218 217 218 219 212 206 205 202 199 199 201 207 214 219 221 226 233 240 245 245 245 245 246 249 256 263 270 266 263 271 274 262 238 219 219 235 252 252 235 232 241 241 215 188 197
255 258 261 265 268 267 264 260 255 248 246 243 234 231 236 235 226 218 219 223 224 220 211 206 204 200 198 201 207 214 220 227 229 230 234 238 239 240 242 244 246 248 250 251 249 240 239 252 260 259 250 236 225 227 237 238 234 242 259 267 259 241 221
252 253 257 263 266 267 266 263 259 249 242 242 236 230 232 233 226 220 221 226 227 218 208 206 205 201 203 212 221 225 225 227 227 227 230 234 238 240 242 244 245 245 243 236 225 216 210 214 224 225 231 238 231 229 233 229 232 244 262 279 283 277 255
254 251 254 260 265 269 270 267 263 253 244 245 242 233 226 225 221 220 224 227 225 216 207 206 207 206 212 221 227 231 232 229 226 226 229 235 240 241 242 245 245 240 236 233 230 227 220 214 216 213 213 228 230 225 227 227 231 246 261 276 284 282 267
256 257 259 260 262 266 266 265 263 255 249 248 245 238 230 222 216 217 224 224 218 212 208 208 207 208 215 221 226 231 234 232 231 231 234 238 240 239 237 240 242 238 234 235 236 238 238 231 227 224 223 236 239 227 222 229 238 251 253 258 264 263 246
256 256 258 258 258 260 260 258 255 250 247 247 242 237 232 225 217 217 219 217 212 209 209 211 211 211 214 218 224 230 232 232 232 233 234 235 236 235 234 235 236 235 234 236 236 237 242 241 238 238 235 236 242 237 232 237 244 253 254 254 249 238 231
255 253 253 254 253 254 254 251 245 238 238 237 232 228 226 222 217 216 215 212 210 209 210 214 215 216 217 218 221 223 224 226 227 227 227 228 229 231 234 234 233 234 236 234 229 230 236 236 234 241 245 244 244 244 240 238 241 248 249 250 246 245 249
250 249 250 247 245 247 247 245 238 230 229 227 223 223 221 217 215 215 214 212 213 214 213 214 217 220 221 221 221 220 219 220 222 223 223 223 224 227 231 233 232 233 236 231 224 225 232 233 232 241 251 253 252 251 250 252 256 253 244 236 235 239 251
239 243 245 242 240 241 242 240 233 224 221 219 218 222 221 216 215 214 213 215 218 221 220 214 213 218 222 223 221 219 217 218 221 222 221 220 221 225 227 229 230 232 234 231 227 227 229 231 234 240 246 251 253 256 260 261 262 259 253 247 241 231 232
230 236 240 239 238 238 238 237 231 222 218 215 213 217 220 218 216 215 215 217 219 225 226 217 210 214 219 219 216 216 216 219 221 221 221 220 221 223 223 225 230 232 233 232 231 230 230 231 235 238 241 247 251 252 253 254 253 255 256 255 250 241 239
229 233 238 239 237 238 238 235 230 224 220 216 211 212 217 219 218 218 217 218 219 224 226 219 212 212 215 215 215 216 219 220 221 221 222 223 224 224 224 226 229 229 231 233 233 233 233 235 235 234 238 243 246 243 239 240 243 247 255 258 254 251 253
230 232 236 237 235 235 237 235 233 232 228 223 219 216 216 217 219 220 218 217 216 217 219 218 215 213 213 214 215 219 223 223 223 224 224 225 228 228 227 227 225 223 225 229 232 234 235 235 234 234 237 237 238 238 236 237 242 246 255 259 256 252 253
232 235 236 237 236 235 237 240 240 237 231 224 223 222 220 218 219 220 218 215 213 214 215 216 216 215 214 213 215 220 223 222 223 226 227 227 228 227 225 225 222 218 220 225 228 230 231 233 234 236 235 228 226 235 239 241 245 251 258 258 256 253 249
237 243 244 244 244 241 241 243 238 233 229 223 223 226 224 221 221 221 217 213 212 213 214 214 214 216 216 215 216 220 220 217 217 220 222 223 223 222 220 220 220 218 219 222 224 226 229 233 236 235 227 218 218 230 240 245 249 255 260 259 258 259 259
241 249 247 248 254 253 245 242 236 232 229 223 223 226 225 223 224 223 217 211 211 212 212 212 214 215 216 218 219 220 218 214 212 213 214 216 218 218 215 214 216 216 215 218 220 223 229 232 233 233 225 218 222 231 239 245 246 247 253 257 259 261 262
246 253 253 256 262 256 246 242 236 231 226 222 222 223 223 223 223 223 218 211 208 210 211 213 216 216 216 218 218 217 214 212 210 210 209 212 215 215 212 212 214 213 214 215 214 217 224 228 231 232 225 221 227 235 241 246 247 249 252 255 258 261 263
254 260 261 261 258 252 248 243 236 230 224 221 221 221 221 220 219 220 220 214 208 208 212 215 217 218 215 215 215 213 210 209 210 210 209 211 211 209 208 210 211 211 213 212 209 214 222 226 230 230 226 226 229 233 241 251 256 257 257 254 254 258 264
262 265 263 259 254 251 249 241 234 228 223 221 220 217 216 218 217 216 216 216 211 207 210 215 216 218 217 213 211 211 210 209 209 210 211 211 208 204 205 209 207 205 207 206 206 216 222 223 224 220 223 230 229 230 242 255 259 258 257 254 251 251 258
266 267 265 263 259 254 248 239 229 222 220 221 221 215 211 214 214 207 208 214 211 206 208 212 213 215 213 210 209 210 210 210 210 209 210 211 210 205 204 205 201 199 202 202 203 210 216 219 220 211 213 223 225 231 246 256 258 257 257 253 243 237 244
268 263 260 263 263 256 247 238 225 218 219 223 220 211 206 208 204 196 202 210 209 206 207 207 208 208 206 205 207 209 211 212 211 209 209 210 210 208 205 204 201 198 198 197 197 203 207 213 219 216 213 217 220 232 244 250 254 256 260 260 253 250 252
268 262 256 256 257 250 243 235 222 215 220 225 222 209 200 201 198 193 199 207 205 205 205 203 204 204 201 202 205 206 208 209 210 212 212 211 210 209 206 206 207 205 203 199 201 207 210 212 220 223 224 224 225 233 241 245 248 248 250 258 263 268 270
264 258 253 250 248 242 236 228 218 214 220 226 223 209 200 200 197 192 197 205 205 203 201 199 200 199 197 200 202 201 201 201 204 208 210 210 210 210 209 212 215 215 214 213 212 211 212 214 221 228 233 236 238 243 246 247 247 247 249 253 257 261 263
258 247 245 245 244 240 232 222 217 218 222 222 217 207 202 202 195 190 198 208 205 201 199 197 196 193 194 197 199 200 201 200 201 203 205 207 210 212 213 215 218 219 221 223 220 217 218 223 228 234 240 245 249 252 255 257 257 257 259 261 262 262 262
254 237 235 235 235 238 235 224 219 222 221 216 212 207 202 197 192 193 202 207 201 199 198 195 192 191 193 196 198 199 201 203 207 208 206 206 207 209 211 216 219 221 222 224 225 227 231 234 238 244 249 251 252 253 257 261 265 267 268 270 271 272 271
260 235 224 219 220 230 234 226 223 225 219 211 206 200 194 193 195 200 203 201 197 197 194 192 191 193 196 198 197 198 203 207 213 215 212 210 210 209 211 215 218 220 222 227 231 235 237 240 245 250 254 257 258 260 262 267 272 276 279 281 283 283 283
281 248 212 205 211 221 223 216 216 217 207 197 193 191 192 196 200 201 199 195 195 196 194 193 194 195 198 198 197 200 205 208 213 216 216 216 216 214 214 215 218 223 229 234 239 242 246 249 253 257 262 265 268 270 274 279 284 287 290 292 293 293 293
300 263 223 212 213 216 210 203 205 204 193 188 190 192 196 199 198 196 196 195 196 197 198 196 195 196 198 199 200 203 206 208 212 214 216 218 218 217 217 218 223 231 238 243 247 250 252 255 259 263 267 270 274 279 282 287 290 293 296 298 299 300 299
329 286 240 224 218 218 212 204 206 202 191 187 191 194 196 196 193 194 195 195 197 200 201 198 197 198 199 201 204 206 206 209 212 214 216 219 221 220 219 222 226 232 240 246 249 250 250 250 251 256 263 267 271 276 279 283 287 290 292 294 296 297 297
349 323 259 233 223 220 217 212 209 200 188 185 191 195 195 193 193 194 194 195 199 202 202 201 200 201 203 205 207 209 210 211 213 215 216 217 218 218 219 221 222 224 230 235 241 246 248 249 250 256 264 268 271 273 276 280 283 286 289 291 292 292 292
344 339 296 241 223 222 220 213 205 192 183 186 192 194 193 193 194 195 194 197 202 204 204 204 204 204 206 207 209 212 216 216 214 215 217 218 217 216 217 221 225 229 233 237 244 251 255 259 264 270 274 276 278 280 281 284 286 287 289 290 290 290 291
333 335 333 266 214 217 217 208 198 189 188 195 197 194 193 194 196 197 198 200 203 205 208 207 207 207 208 209 213 216 219 220 218 217 219 220 220 220 223 229 234 240 245 249 256 262 265 268 273 277 281 281 280 281 281 282 283 284 286 288 288 289 289
350 331 334 325 234 210 205 204 200 194 195 200 200 197 196 196 197 199 200 202 203 205 208 209 209 211 213 217 220 221 226 230 227 222 223 228 229 227 228 233 239 246 251 256 261 265 266 270 274 278 279 279 279 280 279 277 276 278 281 284 284 285 285
13 355 329 320 295 235 216 212 203 196 201 208 206 204 203 201 202 202 201 200 200 202 207 211 212 214 219 224 226 225 231 234 228 223 228 234 234 231 231 237 243 249 255 259 263 265 267 270 274 276 279 281 282 279 274 270 271 275 278 280 279 280 282
9 6 352 323 304 299 279 237 210 204 211 214 208 207 207 203 202 204 203 200 198 202 210 217 222 225 227 229 226 222 227 231 230 234 241 241 240 238 238 242 247 251 256 260 263 266 269 271 274 278 282 285 284 278 268 264 268 274 278 281 282 283 285
8 359 352 340 294 290 300 283 235 224 227 223 213 208 208 206 206 210 212 211 209 213 221 228 234 236 233 230 226 224 228 234 238 246 251 251 253 252 248 248 251 253 257 261 265 269 272 274 276 279 282 283 280 275 272 272 277 281 283 285 287 288 289
4 358 345 323 260 260 276 278 261 253 251 238 219 207 206 210 213 215 218 221 222 224 227 230 229 225 222 224 228 230 234 240 242 247 251 252 254 254 251 251 253 256 260 266 270 275 277 277 275 273 273 273 274 278 282 283 285 286 287 288 289 290 291
334 327 315 301 274 268 267 263 269 281 268 232 208 201 203 206 209 212 216 220 224 226 225 224 222 219 219 227 234 234 235 238 239 242 246 247 247 249 251 254 259 264 268 271 274 280 285 287 283 276 275 279 281 284 285 286 287 288 288 290 290 291 292
Height
3126 3126 3126 3127 3128 3130 3131 3131 3131 3132 3133 3134 3135 3136 3137 3137 3139 3140 3141 3142 3143 3145 3146 3147 3149 3150 3151 3153 3154 3154 3155 3156 3157 3158 3158 3159 3160 3161 3162 3163 3163 3164 3165 3165 3166 3167 3167 3168 3168 3168 3169 3169 3169 3170 3171 3171 3171 3172 3172 3172 3172 3172 3173
3126 3125 3125 3125 3126 3128 3129 3129 3130 3131 3131 3132 3134 3135 3136 3137 3139 3140 3140 3142 3143 3144 3146 3147 3148 3149 3151 3152 3153 3154 3155 3155 3156 3157 3157 3158 3159 3160 3161 3162 3162 3163 3164 3165 3165 3166 3166 3167 3167 3168 3168 3168 3169 3169 3170 3170 3170 3171 3171 3171 3172 3172 3172
3125 3125 3124 3124 3125 3126 3127 3128 3129 3129 3130 3130 3132 3134 3134 3135 3137 3138 3139 3141 3142 3143 3145 3146 3148 3149 3150 3151 3152 3153 3153 3154 3154 3155 3156 3157 3158 3159 3160 3161 3161 3162 3163 3164 3164 3165 3165 3166 3166 3167 3167 3168 3168 3169 3169 3169 3170 3170 3170 3171 3171 3171 3172
3124 3124 3124 3124 3124 3124 3125 3127 3128 3128 3128 3129 3131 3132 3133 3133 3135 3136 3138 3139 3140 3142 3144 3145 3147 3148 3149 3150 3151 3152 3152 3153 3153 3154 3155 3156 3157 3158 3159 3160 3160 3161 3162 3163 3163 3164 3164 3165 3166 3166 3167 3167 3168 3168 3168 3168 3169 3169 3170 3170 3170 3170 3171
3123 3123 3123 3123 3123 3123 3124 3125 3126 3127 3127 3128 3129 3131 3132 3133 3133 3135 3137 3138 3139 3141 3143 3144 3146 3147 3148 3149 3150 3151 3151 3152 3153 3153 3154 3155 3156 3157 3158 3158 3159 3160 3161 3162 3163 3163 3164 3164 3165 3165 3166 3166 3167 3167 3167 3168 3168 3169 3169 3169 3169 3170 3170
3123 3123 3123 3122 3121 3121 3122 3122 3123 3125 3126 3128 3129 3129 3131 3132 3133 3134 3135 3137 3138 3139 3141 3143 3144 3146 3147 3148 3149 3150 3150 3151 3152 3153 3153 3154 3155 3156 3156 3157 3158 3159 3160 3161 3162 3162 3163 3163 3164 3164 3165 3165 3166 3166 3167 3167 3167 3168 3168 3168 3169 3169 3170
3123 3122 3122 3121 3120 3120 3120 3120 3121 3123 3125 3127 3128 3128 3129 3130 3132 3133 3134 3135 3136 3138 3140 3141 3143 3144 3146 3147 3148 3149 3150 3150 3151 3152 3152 3153 3154 3155 3156 3156 3157 3158 3159 3160 3161 3161 3162 3162 3163 3163 3164 3164 3165 3165 3165 3166 3166 3167 3167 3167 3168 3168 3169
3121 3120 3119 3119 3118 3118 3118 3118 3119 3121 3122 3124 3126 3126 3127 3128 3130 3131 3133 3134 3135 3136 3138 3140 3141 3142 3144 3145 3147 3148 3149 3149 3150 3151 3151 3152 3152 3153 3154 3155 3156 3157 3158 3159 3160 3160 3160 3161 3162 3163 3163 3164 3164 3164 3164 3165 3165 3165 3166 3166 3167 3167 3168
3116 3116 3116 3117 3116 3116 3116 3116 3117 3118 3119 3121 3122 3124 3125 3127 3128 3130 3132 3133 3133 3135 3136 3138 3139 3141 3142 3143 3145 3146 3147 3148 3149 3149 3150 3150 3151 3152 3153 3154 3155 3156 3157 3158 3158 3159 3159 3160 3161 3162 3163 3163 3164 3164 3164 3164 3164 3165 3165 3165 3166 3166 3167
3110 3112 3113 3114 3114 3113 3113 3114 3115 3115 3116 3117 3119 3121 3123 3125 3127 3129 3130 3131 3132 3133 3134 3135 3138 3139 3141 3142 3144 3145 3146 3147 3147 3148 3148 3149 3150 3151 3152 3153 3154 3155 3156 3156 3157 3158 3158 3159 3160 3161 3162 3162 3163 3163 3163 3163 3163 3164 3164 3164 3165 3165 3166
3107 3108 3110 3110 3110 3110 3111 3111 3111 3112 3114 3116 3117 3119 3121 3123 3125 3127 3129 3130 3131 3132 3133 3134 3136 3138 3140 3141 3142 3144 3144 3145 3146 3146 3147 3147 3149 3150 3151 3152 3153 3154 3154 3155 3156 3156 3157 3158 3159 3160 3161 3162 3162 3162 3162 3162 3162 3162 3163 3163 3164 3164 3164
3104 3105 3105 3106 3106 3107 3108 3109 3110 3112 3115 3117 3118 3118 3119 3122 3124 3126 3128 3129 3130 3131 3132 3134 3135 3137 3139 3140 3141 3142 3143 3144 3145 3145 3146 3147 3148 3149 3150 3151 3152 3153 3153 3154 3154 3155 3156 3157 3158 3159 3160 3161 3161 3161 3161 3161 3161 3161 3162 3162 3163 3163 3163
3100 3101 3102 3102 3102 3103 3107 3110 3112 3114 3115 3116 3117 3117 3118 3120 3122 3124 3126 3128 3129 3130 3131 3132 3134 3136 3137 3138 3140 3141 3142 3143 3143 3144 3145 3146 3147 3148 3149 3150 3151 3151 3152 3152 3153 3154 3155 3156 3157 3158 3159 3160 3160 3160 3160 3160 3160 3161 3161 3161 3162 3162 3162
3099 3101 3102 3099 3098 3103 3108 3111 3112 3112 3113 3114 3116 3117 3118 3119 3121 3123 3125 3127 3128 3129 3130 3131 3133 3134 3135 3137 3138 3140 3141 3142 3143 3144 3144 3145 3146 3147 3148 3149 3150 3150 3151 3152 3152 3153 3154 3155 3156 3157 3158 3158 3159 3159 3159 3159 3160 3160 3160 3161 3161 3161 3161
3100 3100 3099 3097 3099 3106 3109 3109 3110 3111 3112 3114 3115 3116 3117 3119 3121 3122 3124 3125 3126 3128 3129 3130 3131 3132 3134 3135 3137 3138 3140 3141 3142 3143 3144 3145 3145 3146 3147 3148 3149 3149 3150 3151 3152 3153 3154 3155 3155 3156 3157 3157 3158 3158 3158 3158 3159 3159 3160 3160 3160 3160 3160
3097 3097 3097 3098 3103 3106 3106 3106 3108 3109 3110 3112 3114 3115 3116 3117 3119 3121 3123 3124 3125 3126 3128 3129 3130 3131 3132 3134 3135 3137 3138 3140 3141 3142 3143 3144 3145 3146 3147 3147 3148 3149 3150 3150 3151 3152 3153 3154 3155 3155 3156 3157 3157 3157 3157 3157 3158 3158 3159 3159 3159 3159 3159
3095 3096 3098 3100 3102 3103 3103 3105 3106 3107 3108 3110 3112 3113 3114 3116 3118 3119 3121 3123 3123 3125 3126 3128 3129 3130 3131 3133 3134 3135 3137 3138 3140 3141 3142 3143 3144 3145 3146 3147 3147 3148 3149 3150 3150 3151 3152 3153 3154 3155 3155 3156 3156 3156 3156 3157 3157 3157 3157 3158 3158 3158 3158
3094 3096 3097 3098 3099 3100 3102 3103 3104 3105 3106 3108 3109 3111 3112 3114 3116 3118 3120 3122 3123 3123 3125 3126 3128 3129 3130 3132 3133 3134 3136 3137 3138 3140 3141 3142 3143 3144 3145 3146 3146 3147 3148 3149 3150 3150 3151 3152 3153 3154 3155 3155 3156 3156 3156 3156 3156 3156 3156 3157 3157 3157 3157
3093 3095 3096 3096 3096 3098 3099 3100 3102 3103 3104 3105 3107 3108 3110 3112 3114 3116 3119 3121 3122 3122 3123 3125 3126 3128 3129 3131 3132 3133 3135 3136 3137 3139 3140 3141 3142 3144 3144 3145 3146 3146 3147 3148 3149 3150 3150 3151 3152 3153 3154 3154 3155 3155 3155 3156 3156 3156 3156 3156 3156 3156 3156
3092 3093 3093 3093 3094 3095 3097 3098 3099 3100 3102 3103 3105 3106 3108 3110 3112 3115 3117 3119 3120 3121 3122 3124 3125 3127 3128 3130 3131 3133 3134 3135 3137 3138 3139 3140 3141 3143 3144 3144 3145 3146 3147 3147 3148 3149 3150 3150 3151 3152 3153 3154 3154 3154 3155 3155 3155 3156 3156 3156 3156 3156 3156
3089 3090 3091 3091 3091 3092 3094 3095 3096 3098 3100 3101 3103 3104 3106 3108 3110 3113 3115 3117 3119 3120 3121 3123 3125 3126 3128 3129 3131 3132 3134 3135 3136 3137 3138 3139 3140 3142 3143 3144 3144 3145 3146 3147 3147 3148 3149 3149 3150 3150 3151 3152 3153 3153 3154 3154 3154 3155 3155 3155 3155 3156 3156
3086 3087 3088 3089 3088 3090 3091 3093 3094 3097 3098 3100 3101 3102 3104 3106 3108 3111 3113 3116 3118 3119 3121 3122 3124 3126 3127 3128 3130 3131 3133 3134 3135 3136 3137 3138 3140 3141 3142 3143 3144 3144 3145 3146 3146 3147 3148 3149 3149 3150 3150 3151 3152 3152 3152 3153 3153 3153 3154 3154 3154 3155 3155
3084 3085 3086 3087 3086 3087 3089 3091 3093 3095 3096 3098 3099 3101 3103 3104 3107 3109 3112 3114 3117 3118 3120 3122 3123 3125 3126 3127 3129 3130 3132 3133 3134 3135 3136 3138 3139 3140 3141 3142 3143 3143 3144 3145 3145 3146 3147 3148 3148 3149 3149 3150 3150 3151 3151 3151 3151 3152 3152 3152 3153 3153 3153
3082 3083 3084 3085 3085 3085 3087 3089 3091 3093 3094 3096 3098 3099 3101 3103 3106 3108 3111 3113 3116 3117 3119 3121 3122 3124 3125 3126 3128 3129 3130 3132 3133 3134 3135 3137 3138 3139 3140 3141 3142 3142 3143 3144 3145 3145 3146 3147 3147 3148 3148 3149 3149 3149 3149 3149 3150 3150 3150 3151 3151 3151 3151
3080 3081 3082 3083 3084 3085 3086 3088 3089 3091 3092 3094 3096 3098 3100 3102 3105 3107 3110 3112 3115 3116 3118 3120 3121 3123 3124 3125 3127 3128 3129 3130 3132 3133 3134 3136 3137 3138 3139 3140 3140 3141 3142 3143 3144 3144 3145 3145 3146 3146 3146 3147 3147 3147 3147 3147 3148 3148 3148 3149 3149 3149 3149
3079 3080 3081 3082 3084 3084 3085 3087 3088 3089 3090 3092 3095 3097 3100 3102 3104 3106 3108 3111 3113 3115 3117 3119 3120 3121 3123 3124 3125 3127 3128 3129 3131 3132 3133 3134 3135 3136 3137 3138 3139 3140 3141 3141 3142 3142 3142 3143 3143 3144 3144 3144 3145 3145 3145 3145 3145 3145 3146 3146 3146 3146 3146
3079 3079 3080 3081 3083 3084 3085 3086 3087 3089 3091 3093 3095 3097 3099 3101 3103 3105 3107 3110 3112 3114 3116 3117 3118 3120 3121 3122 3124 3125 3127 3128 3129 3131 3132 3133 3134 3135 3136 3137 3138 3138 3139 3139 3140 3140 3140 3141 3141 3141 3142 3142 3142 3143 3143 3143 3143 3143 3143 3143 3143 3143 3143
3079 3079 3079 3080 3082 3083 3084 3085 3087 3088 3090 3093 3094 3096 3098 3100 3102 3104 3106 3108 3110 3112 3114 3116 3117 3118 3120 3121 3123 3124 3126 3127 3128 3129 3131 3132 3133 3134 3135 3136 3136 3137 3137 3138 3138 3139 3139 3139 3139 3140 3140 3140 3141 3141 3141 3141 3141 3142 3142 3141 3141 3141 3141
3079 3079 3079 3079 3080 3081 3083 3084 3086 3087 3089 3092 3094 3095 3097 3099 3101 3103 3105 3107 3109 3111 3113 3114 3116 3117 3119 3120 3122 3123 3125 3126 3127 3128 3129 3131 3132 3132 3133 3134 3135 3135 3136 3136 3137 3137 3138 3138 3138 3139 3139 3139 3139 3139 3139 3139 3139 3139 3140 3139 3139 3139 3138
3080 3080 3079 3079 3080 3081 3082 3083 3085 3087 3089 3091 3093 3094 3096 3097 3100 3102 3104 3106 3108 3110 3112 3113 3115 3116 3118 3120 3121 3123 3124 3125 3126 3127 3128 3129 3130 3131 3132 3132 3133 3134 3134 3135 3135 3136 3136 3137 3137 3137 3138 3138 3138 3138 3137 3137 3137 3137 3137 3137 3136 3136 3136
3080 3080 3080 3080 3081 3082 3082 3083 3085 3087 3089 3091 3092 3094 3095 3097 3099 3101 3103 3105 3107 3109 3111 3113 3114 3115 3117 3118 3120 3121 3122 3123 3125 3126 3127 3127 3128 3129 3130 3131 3131 3132 3133 3133 3134 3134 3135 3135 3135 3135 3135 3135 3135 3135 3135 3135 3135 3134 3134 3134 3134 3133 3133
3080 3080 3080 3081 3082 3082 3083 3084 3085 3087 3089 3091 3092 3094 3095 3097 3098 3100 3102 3104 3106 3108 3110 3112 3113 3114 3116 3117 3118 3119 3121 3121 3122 3123 3124 3125 3125 3126 3127 3129 3130 3130 3131 3132 3132 3132 3133 3132 3132 3132 3132 3132 3132 3132 3132 3132 3132 3132 3132 3131 3131 3131 3130
3080 3081 3081 3081 3082 3083 3083 3084 3085 3087 3089 3090 3092 3094 3095 3097 3098 3099 3101 3103 3105 3107 3109 3110 3112 3113 3115 3116 3117 3118 3119 3120 3120 3121 3122 3123 3123 3123 3125 3126 3127 3128 3129 3129 3129 3130 3129 3129 3129 3129 3129 3129 3129 3128 3128 3129 3129 3129 3129 3129 3129 3129 3128
3080 3081 3081 3082 3082 3083 3083 3084 3085 3086 3087 3089 3091 3093 3094 3096 3098 3099 3100 3102 3104 3106 3108 3109 3110 3112 3114 3114 3115 3117 3117 3118 3119 3119 3120 3121 3121 3122 3123 3124 3124 3125 3126 3126 3126 3126 3125 3125 3125 3125 3125 3125 3125 3124 3124 3125 3126 3126 3126 3126 3126 3126 3125
3081 3081 3081 3081 3082 3083 3083 3084 3085 3086 3087 3088 3089 3091 3093 3095 3097 3098 3099 3101 3103 3105 3106 3107 3108 3110 3111 3112 3112 3114 3115 3116 3116 3117 3117 3118 3119 3119 3120 3121 3121 3122 3122 3122 3122 3122 3122 3122 3121 3122 3122 3122 3121 3121 3122 3122 3123 3123 3123 3123 3122 3122 3122
3083 3083 3082 3082 3082 3083 3083 3084 3085 3086 3086 3086 3088 3090 3093 3095 3096 3097 3097 3099 3101 3103 3104 3106 3106 3107 3109 3109 3109 3110 3112 3113 3114 3114 3115 3116 3116 3116 3117 3118 3118 3119 3119 3119 3119 3119 3118 3118 3117 3118 3119 3119 3119 3119 3119 3119 3120 3120 3119 3119 3119 3118 3118
3084 3084 3084 3084 3083 3083 3083 3084 3085 3085 3085 3086 3087 3089 3091 3093 3095 3096 3096 3096 3098 3100 3102 3103 3104 3105 3106 3107 3107 3108 3109 3110 3110 3111 3112 3113 3113 3113 3114 3114 3115 3116 3116 3116 3116 3116 3115 3114 3114 3115 3116 3116 3116 3117 3117 3117 3117 3117 3116 3116 3115 3115 3114